| time (UTC) | temp F | wind direction | speed MPH | gust MPH | rain 1hr in | rain 24hr in | rain mn in | humidity % | barometer mb |
| 20260903234545 | 91 | 107 | 4.0 | 11.0 | 0.00 | 0.00 | 0.00 | 57 | 988.5 |
| 20260903233039 | 91 | 93 | 3.0 | 11.0 | 0.00 | 0.00 | 0.00 | 57 | 988.3 |
| 20260903231538 | 92 | 123 | 2.0 | 7.0 | 0.00 | 0.00 | 0.00 | 57 | 988.1 |
| 20260903230036 | 92 | 131 | 4.0 | 11.0 | 0.00 | 0.00 | 0.00 | 57 | 988.1 |
| 20260903224538 | 93 | 51 | 5.0 | 12.0 | 0.00 | 0.00 | 0.00 | 56 | 988.3 |
| 20260903223038 | 93 | 109 | 3.0 | 11.0 | 0.00 | 0.00 | 0.00 | 57 | 988.0 |
| 20260903221532 | 94 | 120 | 3.0 | 11.0 | 0.00 | 0.00 | 0.00 | 55 | 988.1 |
| 20260903220039 | 94 | 162 | 3.0 | 12.0 | 0.00 | 0.00 | 0.00 | 55 | 988.1 |
| 20260903214526 | 93 | 126 | 5.0 | 10.0 | 0.00 | 0.00 | 0.00 | 56 | 988.2 |
| 20260903213034 | 93 | 207 | 3.0 | 9.0 | 0.00 | 0.00 | 0.00 | 57 | 988.4 |
| 20260903211552 | 93 | 127 | 1.0 | 6.0 | 0.00 | 0.00 | 0.00 | 57 | 988.4 |
| 20260903210017 | 92 | 141 | 5.0 | 13.0 | 0.00 | 0.00 | 0.00 | 59 | 988.7 |
| 20260903204513 | 92 | 167 | 3.0 | 10.0 | 0.00 | 0.00 | 0.00 | 59 | 988.9 |
| 20260903203012 | 92 | 215 | 4.0 | 12.0 | 0.00 | 0.00 | 0.00 | 59 | 989.1 |
| 20260903201508 | 90 | 360 | 4.0 | 9.0 | 0.00 | 0.00 | 0.00 | 63 | 989.4 |
| 20260903200006 | 91 | 49 | 4.0 | 10.0 | 0.00 | 0.00 | 0.00 | 62 | 989.4 |
| 20260903194503 | 90 | 127 | 3.0 | 10.0 | 0.00 | 0.00 | 0.00 | 63 | 989.5 |
| 20260903193101 | 90 | 110 | 5.0 | 12.0 | 0.00 | 0.00 | 0.00 | 64 | 989.7 |
| 20260903191557 | 90 | 117 | 3.0 | 14.0 | 0.00 | 0.00 | 0.00 | 64 | 989.8 |
| 20260903190057 | 89 | 96 | 4.0 | 10.0 | 0.00 | 0.00 | 0.00 | 66 | 990.1 |
| 20260903184600 | 88 | 97 | 3.0 | 11.0 | 0.00 | 0.00 | 0.00 | 67 | 990.3 |
| 20260903183049 | 88 | 165 | 5.0 | 12.0 | 0.00 | 0.00 | 0.00 | 69 | 990.5 |
| 20260903181547 | 88 | 128 | 4.0 | 11.0 | 0.00 | 0.00 | 0.00 | 69 | 990.6 |
| 20260903180049 | 88 | 186 | 3.0 | 13.0 | 0.00 | 0.00 | 0.00 | 68 | 990.6 |
| 20260903174604 | 88 | 129 | 3.0 | 10.0 | 0.00 | 0.00 | 0.00 | 68 | 990.8 |
| 20260903173045 | 88 | 176 | 3.0 | 13.0 | 0.00 | 0.00 | 0.00 | 69 | 990.9 |
| 20260903171542 | 88 | 173 | 2.0 | 12.0 | 0.00 | 0.00 | 0.00 | 68 | 991.1 |
| 20260903170103 | 88 | 96 | 5.0 | 10.0 | 0.00 | 0.00 | 0.00 | 69 | 991.1 |
| 20260903164542 | 86 | 172 | 2.0 | 12.0 | 0.00 | 0.00 | 0.00 | 73 | 991.2 |
| 20260903163033 | 85 | 240 | 3.0 | 13.0 | 0.00 | 0.00 | 0.00 | 74 | 991.2 |
| 20260903161532 | 85 | 210 | 2.0 | 7.0 | 0.00 | 0.00 | 0.00 | 74 | 991.3 |
| 20260903160033 | 83 | 116 | 1.0 | 9.0 | 0.00 | 0.00 | 0.00 | 76 | 991.3 |
| 20260903154528 | 82 | 184 | 1.0 | 6.0 | 0.00 | 0.00 | 0.00 | 77 | 991.3 |
| 20260903153027 | 82 | 105 | 2.0 | 8.0 | 0.00 | 0.00 | 0.00 | 78 | 991.2 |
| 20260903151526 | 82 | 138 | 3.0 | 7.0 | 0.00 | 0.00 | 0.00 | 78 | 991.2 |
| 20260903150028 | 81 | 231 | 2.0 | 6.0 | 0.00 | 0.00 | 0.00 | 78 | 991.3 |
| 20260903144522 | 81 | 76 | 2.0 | 7.0 | 0.00 | 0.00 | 0.00 | 79 | 991.3 |
| 20260903143020 | 81 | 110 | 3.0 | 8.0 | 0.00 | 0.00 | 0.00 | 79 | 991.4 |
| 20260903141520 | 80 | 115 | 2.0 | 8.0 | 0.00 | 0.00 | 0.00 | 78 | 991.5 |
| 20260903140015 | 80 | 160 | 2.0 | 7.0 | 0.00 | 0.00 | 0.00 | 78 | 991.4 |
| 20260903134512 | 80 | 53 | 3.0 | 7.0 | 0.00 | 0.00 | 0.00 | 78 | 991.2 |
| 20260903133010 | 80 | 108 | 0.0 | 4.0 | 0.00 | 0.00 | 0.00 | 78 | 991.1 |
| 20260903131508 | 80 | 139 | 0.0 | 4.0 | 0.00 | 0.00 | 0.00 | 78 | 991.1 |
| 20260903130006 | 79 | 99 | 1.0 | 6.0 | 0.00 | 0.00 | 0.00 | 78 | 991.1 |
| 20260903124505 | 79 | 112 | 1.0 | 5.0 | 0.00 | 0.00 | 0.00 | 77 | 991.0 |
| 20260903123003 | 79 | 124 | 0.0 | 5.0 | 0.00 | 0.00 | 0.00 | 76 | 990.9 |
| 20260903121604 | 79 | 127 | 0.0 | 2.0 | 0.00 | 0.00 | 0.00 | 76 | 990.6 |
| 20260903121502 | 79 | 127 | 0.0 | 2.0 | 0.00 | 0.00 | 0.00 | 76 | 990.6 |
| 20260903120105 | 79 | 127 | 0.0 | 1.0 | 0.00 | 0.00 | 0.00 | 76 | 990.6 |
| 20260903114602 | 79 | 127 | 0.0 | 2.0 | 0.00 | 0.00 | 0.00 | 76 | 990.6 |
| 20260903113059 | 79 | 127 | 0.0 | 3.0 | 0.00 | 0.00 | 0.00 | 75 | 990.7 |
| 20260903111623 | 80 | 104 | 0.0 | 2.0 | 0.00 | 0.00 | 0.00 | 75 | 990.6 |
| 20260903110109 | 80 | 104 | 0.0 | 2.0 | 0.00 | 0.00 | 0.00 | 75 | 990.4 |
| 20260903104622 | 80 | 90 | 0.0 | 1.0 | 0.00 | 0.00 | 0.00 | 74 | 990.3 |
| 20260903103055 | 80 | 90 | 0.0 | 1.0 | 0.00 | 0.00 | 0.00 | 73 | 990.2 |
| 20260903101552 | 81 | 90 | 0.0 | 1.0 | 0.00 | 0.00 | 0.00 | 73 | 990.2 |
| 20260903100052 | 81 | 101 | 0.0 | 4.0 | 0.00 | 0.00 | 0.00 | 74 | 990.4 |
| 20260903094600 | 81 | 203 | 0.0 | 2.0 | 0.00 | 0.00 | 0.00 | 75 | 990.4 |
| 20260903093052 | 81 | 198 | 0.0 | 2.0 | 0.00 | 0.00 | 0.00 | 75 | 990.5 |
| 20260903091550 | 81 | 82 | 0.0 | 1.0 | 0.00 | 0.00 | 0.00 | 75 | 990.3 |
| 20260903090051 | 81 | 82 | 0.0 | 1.0 | 0.00 | 0.00 | 0.00 | 74 | 990.2 |
| 20260903084547 | 81 | 82 | 0.0 | 4.0 | 0.00 | 0.00 | 0.00 | 74 | 990.1 |
| 20260903083047 | 81 | 117 | 1.0 | 3.0 | 0.00 | 0.00 | 0.00 | 74 | 990.1 |
| 20260903081547 | 81 | 91 | 1.0 | 3.0 | 0.00 | 0.00 | 0.00 | 74 | 990.2 |
| 20260903080048 | 81 | 137 | 1.0 | 3.0 | 0.00 | 0.00 | 0.00 | 73 | 990.3 |
| 20260903074547 | 81 | 137 | 0.0 | 3.0 | 0.00 | 0.00 | 0.00 | 73 | 990.3 |
| 20260903073047 | 81 | 137 | 0.0 | 3.0 | 0.00 | 0.00 | 0.00 | 73 | 990.3 |
| 20260903071543 | 81 | 78 | 1.0 | 3.0 | 0.00 | 0.00 | 0.00 | 72 | 990.3 |
| 20260903070045 | 81 | 78 | 0.0 | 3.0 | 0.00 | 0.00 | 0.00 | 72 | 990.3 |
| 20260903064540 | 82 | 158 | 0.0 | 3.0 | 0.00 | 0.00 | 0.00 | 71 | 990.5 |
| 20260903063039 | 82 | 131 | 0.0 | 5.0 | 0.00 | 0.00 | 0.00 | 71 | 990.6 |
| 20260903061555 | 82 | 121 | 2.0 | 5.0 | 0.00 | 0.00 | 0.00 | 70 | 990.8 |
| 20260903060036 | 82 | 131 | 2.0 | 7.0 | 0.00 | 0.00 | 0.00 | 70 | 990.8 |
| 20260903054533 | 83 | 116 | 5.0 | 9.0 | 0.00 | 0.00 | 0.00 | 68 | 991.1 |
| 20260903053030 | 83 | 91 | 4.0 | 10.0 | 0.00 | 0.00 | 0.00 | 66 | 991.1 |
| 20260903051527 | 84 | 104 | 2.0 | 9.0 | 0.00 | 0.00 | 0.00 | 65 | 990.9 |
| 20260903050023 | 85 | 74 | 4.0 | 9.0 | 0.00 | 0.00 | 0.00 | 64 | 990.9 |
| 20260903044522 | 85 | 107 | 4.0 | 10.0 | 0.00 | 0.00 | 0.00 | 63 | 990.7 |
| 20260903043021 | 85 | 103 | 4.0 | 10.0 | 0.00 | 0.00 | 0.00 | 62 | 990.7 |
| 20260903041526 | 86 | 118 | 4.0 | 9.0 | 0.00 | 0.00 | 0.00 | 61 | 990.8 |
| 20260903040021 | 86 | 150 | 0.0 | 7.0 | 0.00 | 0.00 | 0.00 | 59 | 990.7 |
| 20260903034520 | 87 | 100 | 5.0 | 8.0 | 0.00 | 0.00 | 0.00 | 58 | 990.8 |
| 20260903033120 | 88 | 130 | 3.0 | 11.0 | 0.00 | 0.00 | 0.00 | 57 | 990.8 |
| 20260903031523 | 89 | 91 | 5.0 | 11.0 | 0.00 | 0.00 | 0.00 | 56 | 990.6 |
| 20260903030031 | 90 | 75 | 5.0 | 9.0 | 0.00 | 0.00 | 0.00 | 54 | 990.4 |
| 20260903024518 | 90 | 76 | 4.0 | 11.0 | 0.00 | 0.00 | 0.00 | 53 | 990.2 |
| 20260903023018 | 91 | 129 | 5.0 | 12.0 | 0.00 | 0.00 | 0.00 | 50 | 990.0 |
| 20260903021518 | 92 | 68 | 5.0 | 9.0 | 0.00 | 0.00 | 0.00 | 48 | 989.8 |
| 20260903020017 | 92 | 98 | 3.0 | 11.0 | 0.00 | 0.00 | 0.00 | 48 | 989.6 |
| 20260903014516 | 93 | 108 | 4.0 | 14.0 | 0.00 | 0.00 | 0.00 | 48 | 989.5 |
| 20260903013027 | 93 | 108 | 3.0 | 10.0 | 0.00 | 0.00 | 0.00 | 48 | 989.2 |
| 20260903011516 | 93 | 58 | 4.0 | 10.0 | 0.00 | 0.00 | 0.00 | 48 | 989.0 |
| 20260903010027 | 94 | 88 | 5.0 | 10.0 | 0.00 | 0.00 | 0.00 | 48 | 988.9 |
| 20260903004513 | 94 | 102 | 4.0 | 11.0 | 0.00 | 0.00 | 0.00 | 47 | 989.0 |
| 20260903003012 | 95 | 120 | 4.0 | 9.0 | 0.00 | 0.00 | 0.00 | 47 | 988.9 |
| 20260903001511 | 96 | 134 | 5.0 | 11.0 | 0.00 | 0.00 | 0.00 | 45 | 988.8 |
| 20260903000011 | 97 | 120 | 5.0 | 13.0 | 0.00 | 0.00 | 0.00 | 44 | 988.8 |